Regional Weather Roundup
Issued by NWS

Home | Current Version | Previous Version | Text Only | Print | Product List | Glossary Off
Versions: 1 2 3 4 5 6 7 8 9 10 11 12 13 14 15 16 17 18 19 20 21 22 23 24 25 26 27 28 29 30 31 32 33 34 35 36 37 38 39 40 41 42 43 44 45 46 47 48 49 50

000
ASUS43 KIND 221459
RWRIN

WEATHER ROUNDUP FOR INDIANA
NATIONAL WEATHER SERVICE INDIANAPOLIS IN
1000 AM EST WED NOV 22 2017

NOTE: "FAIR" INDICATES FEW OR NO CLOUDS BELOW 12,000 FEET WITH NO
SIGNIFICANT WEATHER AND/OR OBSTRUCTIONS TO VISIBILITY.

* - STATION DOES NOT REPORT WEATHER SUCH AS PRECIPITATION OR FOG.

+ - STATION NOT QUALITY CONTROLLED BY THE NATIONAL WEATHER SERVICE.
    USE DATA WITH CAUTION...ESPECIALLY DEWPOINT AND RELATIVE
    HUMIDITY OBSERVATIONS.

INZ001>003-010>013-019-020-221600-
NORTHWEST INDIANA

CITY           SKY/WX    TMP DP  RH WIND       PRES   REMARKS
KNOX *+        CLOUDY    30  23  74 W6        30.32R WCI  24
MICHIGAN CITY+ CLOUDY    34  23  64 N5        30.32R WCI  30
MONTICELLO +   PTSUNNY   28  21  73 NW8       30.33S WCI  20
RENSSELAER +   SUNNY     28  19  69 NW8       30.35S WCI  20

$$

LMZ046-743>745-221600-
SOUTHERN LAKE MICHIGAN

STATION/POSITION TIME  TEMP    WIND        PRES    WAVE
                       AIR SEA DIR/SP/G            HT
                 (UTC) (F)     (DEG/KT/KT) (MB)    (FT)
BURNS HARBOR     1346   32     340/  6/ 15 1026.8S
MICHIGAN CITY    1430   33     290/ 11/ 13   N/A

$$

INZ004-005-014>016-021>024-221600-
NORTH CENTRAL INDIANA

CITY           SKY/WX    TMP DP  RH WIND       PRES   REMARKS
GOSHEN         CLOUDY    31  19  61 N8        30.30R WCI  23
PERU/GRISSOM   PTSUNNY   29  23  76 W8        30.31S WCI  22
SOUTH BEND     CLOUDY    31  23  72 VRB3      30.31R
WARSAW +       CLOUDY    32  23  69 N6        30.30R WCI  26

$$

INZ006>009-017-018-025>027-221600-
NORTHEAST INDIANA

CITY           SKY/WX    TMP DP  RH WIND       PRES   REMARKS
AUBURN +       CLOUDY    32  19  59 N8        30.30R WCI  25
FORT WAYNE     CLOUDY    34  24  67 N13       30.30R WCI  25
KENDALLVILLE + CLOUDY    30  20  65 N6        30.29R WCI  24

$$

INZ028-029-035-036-043>045-051>053-221600-
WEST CENTRAL INDIANA

CITY           SKY/WX    TMP DP  RH WIND       PRES   REMARKS
CRAWFORDSVL +  SUNNY     26  20  79 MISG      30.34S
GREENCASTLE +  SUNNY     30  21  69 N7        30.35S WCI  23
LAFAYETTE      SUNNY     28  22  78 NW6       30.35S WCI  22
TERRE HAUTE    SUNNY     30  19  63 N7        30.37S WCI  23

$$

INZ030>032-037>040-046>048-054>057-064-065-221600-
CENTRAL INDIANA

CITY           SKY/WX    TMP DP  RH WIND       PRES   REMARKS
ANDERSON       SUNNY    N/A N/A N/A NW12      30.29S
FRANKFORT +    SUNNY     31  24  75 NW6       30.34R WCI  25
INDIANAPOLIS   MOSUNNY   30  22  72 NW12      30.34R WCI  20
-EAGLE CREEK   SUNNY     31  22  69 NW8       30.32S WCI  23
KOKOMO +       MOSUNNY   31  24  75 W9        30.32S WCI  23
MT COMFORT *+  SUNNY     30  27  86 NW8       30.32S WCI  23
SHELBYVILLE    SUNNY     32  22  66 N7        30.32R WCI  26

$$

INZ033-034-041-042-049-050-058-059-221600-
EAST CENTRAL INDIANA

CITY           SKY/WX    TMP DP  RH WIND       PRES   REMARKS
MUNCIE         SUNNY     33  25  72 NW7       30.30R WCI  27
RICHMOND +     MOSUNNY   30  27  86 NW6       30.29R WCI  24

$$

INZ060-061-067>069-081>083-085>088-221600-
SOUTHWEST INDIANA

CITY           SKY/WX    TMP DP  RH WIND       PRES   REMARKS
EVANSVILLE     SUNNY     32  23  69 N8        30.40R WCI  25
HUNTINGBURG +  SUNNY     31  23  72 N9        30.38R WCI  23

$$

INZ062-063-066-070>080-084-089>092-221600-
SOUTH CENTRAL AND SOUTHEAST INDIANA

CITY           SKY/WX    TMP DP  RH WIND       PRES   REMARKS
BLOOMINGTON    SUNNY     30  19  63 N6        30.35R WCI  24
MADISON *+     SUNNY     32  25  74 N3        30.35R
SEYMOUR +      MOSUNNY   34  23  64 NW5       30.36R WCI  30

$$




USA.gov is the U.S. government's official web portal to all federal, state and local government web resources and services.